This is the latest recevied weather packets stored in our database for station/object K5VW. If no packets are shown the sender has not sent any weather packets the latest 1 day(s).
| Time | Temp. | Humidity | Pressure | Rain* | Wind** | Luminosity | Snow |
|---|---|---|---|---|---|---|---|
| 1777994378 | 21.67° C | 38% | 1006.2 hPa | 0 mm | 0 m/s | - | - |
| 1777994321 | 21.67° C | 37% | 1006.2 hPa | 0 mm | 0 m/s | - | - |
| 1777994256 | 21.67° C | 40% | 1006.4 hPa | 0 mm | 0 m/s | - | - |
| 1777994193 | 21.67° C | 39% | 1006.4 hPa | 0 mm | 0 m/s | - | - |
| 1777994117 | 21.67° C | 38% | 1006.2 hPa | 0 mm | 0 m/s | - | - |
| 1777994054 | 21.67° C | 37% | 1006.2 hPa | 0 mm | 0 m/s | - | - |
| 1777993995 | 21.67° C | 41% | 1006.4 hPa | 0 mm | 0 m/s | - | - |
| 1777993931 | 21.67° C | 41% | 1006.7 hPa | 0 mm | 0 m/s | - | - |
| 1777993858 | 21.67° C | 41% | 1006.6 hPa | 0 mm | 0 m/s | - | - |
| 1777993783 | 21.67° C | 41% | 1006.6 hPa | 0 mm | 0 m/s | - | - |
| 1777993721 | 21.11° C | 42% | 1006.6 hPa | 0 mm | 0 m/s | - | - |
| 1777993656 | 21.11° C | 44% | 1006.6 hPa | 0 mm | 0 m/s | - | - |
| 1777993603 | 21.11° C | 42% | 1006.6 hPa | 0 mm | 0 m/s | - | - |
| 1777993543 | 21.11° C | 42% | 1006.6 hPa | 0 mm | 0 m/s | - | - |
| 1777993482 | 21.11° C | 42% | 1006.6 hPa | 0 mm | 0 m/s | - | - |
| 1777993420 | 21.11° C | 43% | 1006.6 hPa | 0 mm | 0 m/s | - | - |
| 1777993355 | 21.11° C | 42% | 1006.5 hPa | 0 mm | 0 m/s | - | - |
| 1777993272 | 21.11° C | 43% | 1006.6 hPa | 0 mm | 0 m/s | - | - |
| 1777993215 | 21.11° C | 44% | 1006.5 hPa | 0 mm | 0 m/s | - | - |
| 1777993150 | 21.11° C | 45% | 1006.5 hPa | 0 mm | 0 m/s | - | - |
| 1777993092 | 21.11° C | 45% | 1006.5 hPa | 0 mm | 0 m/s | - | - |
| 1777993046 | 21.11° C | 44% | 1006.7 hPa | 0 mm | 0 m/s | - | - |
| 1777992969 | 21.11° C | 43% | 1006.7 hPa | 0 mm | 0 m/s | - | - |
| 1777992909 | 21.11° C | 44% | 1006.7 hPa | 0 mm | 0 m/s | - | - |
| 1777992852 | 21.11° C | 45% | 1006.8 hPa | 0 mm | 0 m/s | - | - |
* Rain latest hour (hover to see other rain measurements)
** Current wind speed in m/s (hover to see current wind gust speed)